[[{"header":{"parameterUnit":"m.s-1","parameterCategory":1,"la1":30.2991,"la2":30.254,"lo1":-89.0895,"lo2":-89.0444,"dy":0.0017,"dx":0.0017,"nx":28,"ny":28,"refTime":"2024-11-25T09:00:00:Z","depth":0,"parameterNumber":2,"parameterNumberName":"U-component_of_WINDS"},"data":[0,0,0,0,0,0,0,0,0,0,0,0,0,0,0,0,0,0,0,0,0,0,0,0,0,0,0,0,0,0,0,0,0,0,0,0,0,0,0,0,0,0,0,0,0,0,0,0,0,0,0,0,0,0,0,0,0,0,-0.0702,-0.0701,0,-0.0652,-0.0652,-0.0651,-0.0653,-0.0654,-0.0654,-0.0655,-0.0601,-0.0599,-0.0597,0,0,0,0,0,0,0,0,0,0,0,0,0,-0.0794,-0.0792,-0.0702,-0.0701,-0.0701,-0.0652,-0.0652,-0.0651,-0.0653,-0.0654,-0.0654,-0.0655,-0.0602,-0.06,-0.0597,0,0,0,0,0,0,0,0,0,0,0,0,0,-0.075,-0.0792,-0.0702,-0.0696,-0.0695,-0.0653,-0.0652,-0.0651,-0.0653,-0.0654,-0.0655,-0.0656,-0.0603,-0.06,-0.0597,-0.0557,0,0,-0.0587,-0.0586,0,0,0,0,0,0,0,0,-0.0753,-0.0747,-0.0697,-0.0696,-0.0695,-0.066,-0.0665,-0.0619,-0.0652,-0.0668,-0.0655,-0.0656,-0.062,-0.0615,-0.0604,-0.0554,-0.0552,-0.0587,-0.0585,-0.0584,-0.0583,0,0,0,0,0,0,0,-0.0756,-0.0749,-0.0682,-0.0697,-0.0695,-0.0694,-0.0689,-0.0656,-0.0639,-0.0667,-0.0667,-0.0661,-0.0619,-0.0607,-0.0603,-0.0551,-0.0587,-0.0584,-0.0582,-0.0581,-0.0464,-0.0463,0,0,0,0,0,0,-0.0761,-0.0751,-0.0684,-0.0681,-0.0727,-0.0692,-0.0686,-0.067,-0.0639,-0.0636,-0.0661,-0.0662,-0.0612,-0.0606,-0.0601,-0.0551,-0.0584,-0.0581,-0.0579,-0.0466,-0.0464,-0.0463,0,0,0,0,0,0,-0.0763,-0.0755,-0.0686,-0.0716,-0.0707,-0.0689,-0.0671,-0.0669,-0.0656,-0.0634,-0.0631,-0.0651,-0.0612,-0.0605,-0.0567,-0.0549,-0.058,-0.0577,-0.0467,-0.0465,-0.0463,-0.0451,0,0,0,0,0,0,-0.0765,-0.0755,-0.0741,-0.0716,-0.0706,-0.0655,-0.067,-0.0667,-0.0651,-0.0652,-0.0625,-0.0621,-0.0612,-0.0572,-0.0564,-0.0545,-0.0574,-0.0469,-0.0466,-0.0464,-0.0453,-0.0449,-0.0446,0,0,0,0,0,-0.0768,-0.0739,-0.074,-0.0732,-0.0688,-0.0654,-0.0648,-0.0639,-0.065,-0.0634,-0.062,-0.0622,-0.0552,-0.0568,-0.056,-0.0539,-0.047,-0.0467,-0.0464,-0.0455,-0.045,-0.0446,0,0,0,0,0,0,-0.0762,-0.0736,-0.0737,-0.0699,-0.0678,-0.0654,-0.0635,-0.0635,-0.0611,-0.0612,-0.0602,-0.0596,-0.0558,-0.0545,-0.0563,-0.0498,-0.0512,-0.0507,-0.0508,-0.0503,-0.0499,-0.0503,-0.0572,0,0,0,0,0,-0.0757,-0.0732,-0.071,-0.0679,-0.0669,-0.0653,-0.0638,-0.0633,-0.0612,-0.0603,-0.0586,-0.0564,-0.0537,-0.0519,-0.0493,-0.0451,-0.0444,-0.0432,-0.0429,-0.0426,-0.0422,-0.0397,-0.0391,-0.0454,-0.0454,-0.0454,0,0,-0.0744,-0.0727,-0.0712,-0.0677,-0.0661,-0.0635,-0.0646,-0.0618,-0.0598,-0.0598,-0.0562,-0.0548,-0.0523,-0.0482,-0.0464,-0.047,-0.0403,-0.0422,-0.042,-0.0418,-0.0393,-0.0387,-0.0382,-0.0452,-0.0452,-0.0452,0,0,-0.0709,-0.0694,-0.0665,-0.0649,-0.0624,-0.0614,-0.0607,-0.0582,-0.0573,-0.0537,-0.0535,-0.0511,-0.0465,-0.0446,-0.0431,-0.0386,-0.0386,-0.0377,-0.0358,-0.0334,-0.0329,-0.0324,-0.0307,-0.0301,-0.0374,-0.0374,-0.0374,0,-0.0697,-0.0659,-0.0651,-0.0622,-0.0606,-0.0605,-0.0575,-0.0559,-0.0527,-0.0515,-0.0523,-0.0464,-0.0447,-0.0401,-0.039,-0.0378,-0.0368,-0.0381,-0.033,-0.0326,-0.0321,-0.0305,-0.0298,-0.0373,-0.0373,-0.0373,-0.0373,0,-0.0644,-0.0617,-0.0597,-0.0566,-0.0548,-0.0519,-0.0505,-0.0487,-0.0483,-0.0471,-0.0433,-0.0412,-0.0381,-0.0369,-0.0366,-0.0323,-0.0327,-0.0333,-0.0347,-0.0315,-0.0299,-0.0292,-0.0371,-0.0372,-0.0372,-0.0372,0,0,-0.0605,-0.0569,-0.0561,-0.0547,-0.0519,-0.0497,-0.0467,-0.0437,-0.0421,-0.0398,-0.0372,-0.0332,-0.0336,-0.0319,-0.0312,-0.0291,-0.0255,-0.0299,-0.0298,-0.029,-0.0204,-0.02,-0.0193,-0.0255,-0.0254,-0.0253,-0.0206,0,-0.0566,-0.0514,-0.0505,-0.0459,-0.0433,-0.0431,-0.0404,-0.0383,-0.0371,-0.0346,-0.0332,-0.0303,-0.0312,-0.0301,-0.028,-0.0264,-0.0237,-0.0267,-0.0229,-0.0227,-0.0235,-0.0185,-0.0181,-0.0139,-0.02,-0.0199,-0.0198,0,-0.0514,-0.049,-0.0442,-0.0415,-0.0404,-0.0381,-0.0352,-0.0328,-0.0303,-0.0296,-0.0275,-0.0271,-0.0237,-0.0253,-0.0206,-0.0226,-0.021,-0.0199,-0.0197,-0.0193,-0.0211,-0.0179,-0.0125,-0.0118,-0.0189,-0.019,-0.019,0,-0.0489,-0.0444,-0.0409,-0.0397,-0.0366,-0.0349,-0.0335,-0.0311,-0.0293,-0.0267,-0.0255,-0.0225,-0.0209,-0.0185,-0.0172,-0.0184,-0.0125,-0.014,-0.0116,-0.0117,-0.0104,-0.0105,-0.0046,-0.0094,-0.0094,-0.0095,-0.0095,0,-0.0446,-0.0417,-0.0398,-0.0376,-0.0342,-0.0331,-0.0297,-0.0283,-0.0261,-0.0235,-0.0231,-0.0207,-0.0191,-0.0164,-0.0153,-0.0115,-0.0107,-0.0099,-0.0096,-0.0099,-0.01,-0.0088,-0.0091,-0.0093,-0.0093,-0.0094,-0.0094,0,-0.0413,-0.0399,-0.0361,-0.0334,-0.0326,-0.0302,-0.0278,-0.0256,-0.0243,-0.0211,-0.0202,-0.0182,-0.0149,-0.0134,-0.0093,-0.0086,-0.0042,-0.0042,-0.0051,-0.005,-0.0027,-0.0029,0.0042,0.0052,-0.0003,-0.0003,-0.0002,0,-0.0387,-0.0364,-0.0335,-0.0317,-0.0303,-0.0276,-0.0257,-0.0244,-0.0225,-0.0194,-0.0175,-0.0142,-0.0116,-0.0063,-0.0044,-0.0012,-0.0011,0.0012,-0.0006,-0.0009,-0.0009,-0.0011,-0.0007,0.0015,0.0016,0.0016,0.0017,0,-0.0342,-0.0336,-0.031,-0.0281,-0.0259,-0.0236,-0.0212,-0.0198,-0.0181,-0.0159,-0.0127,-0.0106,-0.0064,-0.0031,0.0002,0.0019,0.0021,0.0022,0.003,0.0027,0.0021,0.0026,-0.0042,0.0021,0.002,0.002,0.002,0.002,-0.0311,-0.029,-0.0265,-0.0236,-0.0217,-0.0195,-0.0173,-0.0157,-0.0129,-0.0095,-0.0089,-0.0053,-0.0026,0.0019,0.0036,0.0066,0.0061,0.0071,0.0073,0.0076,0.0077,0.0016,0.0072,0.0072,0.0072,0.0071,0.0071,0,-0.0265,-0.0249,-0.0222,-0.019,-0.0166,-0.0166,-0.014,-0.0119,-0.0089,-0.0064,-0.0038,0.0001,0.0034,0.0057,0.009,0.0109,0.0112,0.0118,0.0117,0.0121,0.0079,0.007,0.0116,0.0116,0.0116,0.0116,0.0116,0.0116,-0.0238,-0.0202,-0.0193,-0.0146,-0.013,-0.0096,-0.0081,-0.0059,-0.004,0.0004,0.003,0.0045,0.0069,0.0105,0.0136,0.0142,0.0155,0.0161,0.0167,0.0128,0.0123,0.0119,0.011,0.0163,0.0164,0.0206,0.0207,0.0207]},{"header":{"parameterUnit":"m.s-1","parameterCategory":1,"la1":30.2991,"la2":30.254,"lo1":-89.0895,"lo2":-89.0444,"dy":0.0017,"dx":0.0017,"nx":28,"ny":28,"refTime":"2024-11-25T09:00:00:Z","depth":0,"parameterNumber":3,"parameterNumberName":"V-component_of_WINDS"},"data":[0,0,0,0,0,0,0,0,0,0,0,0,0,0,0,0,0,0,0,0,0,0,0,0,0,0,0,0,0,0,0,0,0,0,0,0,0,0,0,0,0,0,0,0,0,0,0,0,0,0,0,0,0,0,0,0,0,0,1.8081,1.808,0,1.7961,1.796,1.7959,1.7827,1.7825,1.7823,1.7821,1.7698,1.7696,1.7695,0,0,0,0,0,0,0,0,0,0,0,0,0,1.8196,1.8194,1.8081,1.808,1.8078,1.7962,1.796,1.7958,1.7827,1.7825,1.7823,1.7821,1.7698,1.7697,1.7695,0,0,0,0,0,0,0,0,0,0,0,0,0,1.8118,1.8194,1.8081,1.7999,1.799,1.7962,1.796,1.7958,1.7828,1.7825,1.7822,1.782,1.7699,1.7697,1.7695,1.7738,0,0,1.7688,1.7687,0,0,0,0,0,0,0,0,1.8123,1.8114,1.8012,1.8004,1.7995,1.7906,1.7955,1.7884,1.7829,1.789,1.7821,1.7818,1.777,1.7761,1.7745,1.7732,1.7727,1.7687,1.7686,1.7685,1.7684,0,0,0,0,0,0,0,1.8128,1.8118,1.8034,1.8011,1.8,1.7967,1.7953,1.7941,1.7847,1.7884,1.7874,1.7862,1.7764,1.7748,1.7741,1.7725,1.7688,1.7685,1.7684,1.7683,1.7741,1.7744,0,0,0,0,0,0,1.8146,1.8124,1.8037,1.803,1.8053,1.7968,1.7952,1.7938,1.7847,1.783,1.7864,1.7856,1.7753,1.7744,1.7736,1.7781,1.7685,1.7683,1.7682,1.7738,1.7742,1.7745,0,0,0,0,0,0,1.8149,1.814,1.8042,1.8074,1.8059,1.7969,1.7954,1.7937,1.792,1.7832,1.7814,1.7865,1.775,1.774,1.7738,1.7774,1.7682,1.768,1.7735,1.7739,1.7743,1.787,0,0,0,0,0,0,1.8153,1.8141,1.8157,1.8075,1.8058,1.8047,1.7956,1.7936,1.7916,1.7905,1.7828,1.7812,1.7747,1.7743,1.7736,1.777,1.7678,1.7731,1.7737,1.7742,1.7862,1.7878,1.7892,0,0,0,0,0,1.8157,1.8197,1.8158,1.8149,1.8076,1.8049,1.8039,1.7964,1.792,1.7935,1.7878,1.7815,1.7772,1.7744,1.7735,1.7769,1.7729,1.7735,1.7742,1.7856,1.7875,1.7892,0,0,0,0,0,0,1.8284,1.8185,1.8141,1.8155,1.8112,1.8027,1.8043,1.7987,1.7954,1.7945,1.7852,1.7836,1.7846,1.7807,1.7777,1.7806,1.7741,1.7746,1.7831,1.7848,1.7863,1.7872,1.7676,0,0,0,0,0,1.8314,1.8301,1.8215,1.8236,1.8217,1.8134,1.812,1.8066,1.8017,1.7998,1.7941,1.7896,1.7872,1.7858,1.7831,1.7856,1.7838,1.7875,1.789,1.7903,1.7908,1.7919,1.7935,1.7766,1.7766,1.7766,0,0,1.8375,1.8319,1.8317,1.826,1.822,1.8209,1.8119,1.8111,1.8101,1.7996,1.7991,1.7949,1.7892,1.7905,1.7907,1.7872,1.7951,1.7911,1.7922,1.792,1.7927,1.7943,1.7958,1.7771,1.777,1.7769,0,0,1.848,1.8437,1.845,1.8412,1.8353,1.8298,1.8302,1.8225,1.8193,1.8188,1.8108,1.8096,1.8057,1.802,1.7996,1.809,1.803,1.8084,1.8161,1.8172,1.8185,1.8197,1.823,1.8243,1.8089,1.809,1.809,0,1.8564,1.8543,1.8464,1.846,1.8438,1.8343,1.8355,1.8322,1.8258,1.8244,1.8207,1.8156,1.8111,1.8114,1.8137,1.8121,1.8122,1.8091,1.819,1.82,1.821,1.824,1.8253,1.8096,1.8096,1.8095,1.8094,0,1.8649,1.8636,1.8654,1.8594,1.8574,1.8579,1.8499,1.8488,1.8437,1.8386,1.8382,1.8325,1.8286,1.8282,1.8232,1.8278,1.8258,1.8207,1.814,1.8234,1.8261,1.8272,1.8106,1.8104,1.8102,1.81,0,0,1.8829,1.8726,1.8734,1.8706,1.8635,1.8623,1.8624,1.8586,1.8578,1.8537,1.8536,1.8506,1.8458,1.8431,1.8375,1.8386,1.8463,1.8332,1.833,1.8358,1.8511,1.855,1.8565,1.8424,1.8426,1.8427,1.8516,0,1.8921,1.8916,1.8845,1.8861,1.8848,1.8759,1.876,1.8716,1.8669,1.8652,1.86,1.858,1.8518,1.8502,1.8508,1.8453,1.8493,1.8445,1.8421,1.8421,1.8437,1.8579,1.862,1.8706,1.8526,1.8528,1.8529,0,1.9027,1.8993,1.9008,1.8937,1.8929,1.8931,1.8891,1.8875,1.8824,1.879,1.8761,1.8698,1.8694,1.8632,1.8625,1.8595,1.8581,1.8553,1.8554,1.8548,1.848,1.8577,1.8732,1.8745,1.8545,1.8544,1.8543,0,1.9157,1.9115,1.9118,1.9097,1.9015,1.9018,1.8984,1.893,1.8912,1.8877,1.8864,1.883,1.8811,1.8785,1.8715,1.8676,1.8716,1.8648,1.8687,1.8689,1.8698,1.8699,1.8853,1.8691,1.8691,1.8691,1.869,0,1.9266,1.9279,1.9175,1.9178,1.9189,1.9108,1.9121,1.9078,1.9032,1.9024,1.8945,1.8939,1.8847,1.8831,1.8777,1.8779,1.8771,1.8743,1.8728,1.875,1.8753,1.8738,1.873,1.8694,1.8693,1.8693,1.8692,0,1.9412,1.9343,1.9341,1.9264,1.9245,1.9257,1.919,1.9189,1.9138,1.913,1.9123,1.9043,1.902,1.8948,1.8907,1.887,1.889,1.8862,1.8907,1.8897,1.894,1.8937,1.909,1.9106,1.8935,1.8937,1.8938,0,1.9486,1.9493,1.9418,1.9407,1.9376,1.936,1.9342,1.9263,1.9247,1.919,1.9196,1.9167,1.914,1.9108,1.9046,1.9015,1.8985,1.9041,1.898,1.9001,1.8985,1.8986,1.8986,1.9054,1.9056,1.9058,1.906,0,1.9624,1.959,1.9567,1.9533,1.9513,1.9482,1.9446,1.9442,1.9354,1.934,1.9316,1.9295,1.9254,1.9227,1.9186,1.915,1.9091,1.908,1.9087,1.9108,1.9134,1.9121,1.8943,1.9076,1.9074,1.9073,1.9072,1.9072,1.9735,1.9738,1.9686,1.9663,1.9628,1.9597,1.9592,1.9542,1.9521,1.9481,1.9436,1.9418,1.9367,1.9306,1.9276,1.926,1.9228,1.9238,1.9241,1.9245,1.9255,1.9138,1.9252,1.9252,1.9251,1.9251,1.925,0,1.9869,1.9832,1.9812,1.9765,1.9747,1.9694,1.9652,1.964,1.9625,1.9584,1.9559,1.9533,1.9506,1.9443,1.941,1.941,1.9382,1.9405,1.9403,1.9396,1.9286,1.9283,1.9428,1.9428,1.9428,1.9428,1.9428,1.9428,1.9937,1.9939,1.99,1.9884,1.9846,1.9828,1.9809,1.978,1.9746,1.972,1.9698,1.9658,1.9608,1.9571,1.9545,1.9527,1.9518,1.955,1.9523,1.9421,1.9404,1.9388,1.9384,1.9549,1.9549,1.9634,1.9635,1.9636]}]]